Location: Peebles
(55.6412°N, 3.1714°W)
Time: 15:45:43
(UTC+01:00)

deb Agena D - Pass Details

Date: 19 September 2024
Orbit: 793 x 976 km, 99.8° (Epoch: 03 October)

Event Time Altitude Azimuth Distance (km) Brightness Sun altitude
Rises 02:19:25 0° 24° (NNE) 3,445 10.5 -31.1°
Reaches altitude 10° 02:22:10 10° 37° (NE) 2,534 9.5 -31.0°
Maximum altitude 02:26:51 26° 93° (E) 1,686 7.9 -30.7°
Enters shadow 02:27:45 25° 108° (ESE) 1,733 7.8 -30.6°
